Location: Ariel
(45.9570°N, 122.5700°W)
Time: 18:25:43
(UTC-07:00)

Tiros 1 - Pass Details

Date: 29 July 2019
Orbit: 631 x 664 km, 48.4° (Epoch: 24 August)

Event Time Altitude Azimuth Distance (km) Brightness Sun altitude
Rises 08:42:22 0° 187° (S) 2,950 10.5 28.1°
Reaches altitude 10° 08:45:53 10° 160° (SSE) 2,053 10.1 28.7°
Maximum altitude 08:48:02 13° 133° (SE) 1,863 10.4 29.1°
Drops below altitude 10° 08:50:12 10° 106° (ESE) 2,067 11.3 29.4°
Sets 08:53:45 0° 79° (E) 2,990 11.7 30.1°
